Location: Miami, Florida
(25.6830°N, 80.1700°W)
Time: 12:02:02
(UTC-04:00)

Hubble Space Telescope - Pass Details

Date: 19 November 2017
Orbit: 537 x 541 km, 28.5° (Epoch: 18 November)

Event Time Altitude Azimuth Distance (km) Brightness Sun altitude
Exits shadow 06:54:50 15° 278° (W) 1,492 2.4 -10.8°
Maximum altitude 06:58:08 59° 356° (N) 618 0.9 -10.1°
Drops below altitude 10° 07:02:12 10° 76° (ENE) 1,782 4.4 -9.2°
Sets 07:04:30 0° 80° (E) 2,673 5.6 -8.7°
